Location: Austin
(30.3000°N, 97.7500°W)
Time: 05:43:26
(UTC-06:00)

Cosmos 1000 Rocket - Pass Details

Date: 05 February 2026
Orbit: 953 x 991 km, 82.9° (Epoch: 15 February)

Event Time Altitude Azimuth Distance (km) Brightness Sun altitude
Rises 06:04:07 0° 352° (N) 3,686 7.4 -16.6°
Reaches altitude 10° 06:06:37 10° 351° (N) 2,740 6.7 -16.0°
Maximum altitude 06:12:54 78° 266° (W) 1,012 4.4 -14.7°
Drops below altitude 10° 06:19:11 10° 181° (S) 2,741 7.0 -13.4°
Sets 06:21:42 0° 180° (S) 3,687 7.7 -12.8°
